Regional Weather Roundup
Issued by NWS

Home | Current Version | Previous Version | Graphics & Text | Print | Product List | Glossary On
Versions: 1 2 3 4 5 6 7 8 9 10 11 12 13 14 15 16 17 18 19 20 21 22 23 24 25 26 27 28 29 30 31 32 33 34 35 36 37 38 39 40 41 42 43 44 45 46 47 48 49 50
000
ASUS43 KLMK 241902
RWRKY
KENTUCKY REGIONAL WEATHER ROUNDUP
NATIONAL WEATHER SERVICE LOUISVILLE KY
300 PM EDT SUN MAY 24 2015

NOTE "FAIR" INDICATES FEW OR NO CLOUDS BELOW 12,000 FEET
WITH NO SIGNIFICANT WEATHER AND/OR OBSTRUCTIONS TO VISIBILITY.

KYZ001>023-026-027-061>063-070>075-242000-
WESTERN AND SOUTH CENTRAL KENTUCKY

CITY           SKY/WX    TMP DP  RH WIND       PRES   REMARKS
PADUCAH        PTSUNNY   86  65  49 S16G24    30.06F
HENDERSON      MOSUNNY   82  61  47 S15G21    30.10F
OWENSBORO      MOSUNNY   84  62  47 S15G23    30.14F
HOPKINSVILLE   MOSUNNY   83  64  52 SE15      30.13F
BOWLING GREEN  PTSUNNY   83  60  45 S15G22    30.18F
GLASGOW        NOT AVBL
$$

KYZ024-025-028>034-038-045-046-053-242000-
NORTH CENTRAL KENTUCKY

CITY           SKY/WX    TMP DP  RH WIND       PRES   REMARKS
LOUISVILLE/SDF MOSUNNY   84  58  40 S10G20    30.18F
LOUISVILLE/LOU MOSUNNY   83  56  39 S12       30.19F
FORT KNOX      SUNNY     83  60  46 S8        30.18F
$$

KYZ035>037-039>044-047>052-055>060-089>105-242000-
NORTHEAST KENTUCKY

CITY           SKY/WX    TMP DP  RH WIND       PRES   REMARKS
LEXINGTON      SUNNY     82  52  35 S14       30.23F
COVINGTON      PTSUNNY   83  54  36 S13G20    30.21F
FRANKFORT      SUNNY     83  53  35 S9G20     30.21F
$$

KYZ054-064>069-076>088-106>120-242000-
SOUTHEAST KENTUCKY

CITY           SKY/WX    TMP DP  RH WIND       PRES   REMARKS
JACKSON        MOSUNNY   81  54  39 VRB5      30.27F
LONDON         SUNNY     82  45  27 SE10      30.26F
SOMERSET       NOT AVBL
MIDDLESBORO    NOT AVBL
MONTICELLO     PTCLDY    82  58  43 VRB7      30.27F
$$



USA.gov is the U.S. government's official web portal to all federal, state and local government web resources and services.